CST,Max TemperatureF,Mean TemperatureF,Min TemperatureF,Max Dew PointF,MeanDew PointF,Min DewpointF,Max Humidity, Mean Humidity, Min Humidity, Max Sea Level PressureIn, Mean Sea Level PressureIn, Min Sea Level PressureIn, Max VisibilityMiles, Mean VisibilityMiles, Min VisibilityMiles, Max Wind SpeedMPH, Mean Wind SpeedMPH, Max Gust SpeedMPH,PrecipitationIn, CloudCover, Events, WindDirDegrees
2014-2-1,12,4,-4,9,-1,-15,85,73,60,30.08,30.00,29.93,10,10,2,8,4,,0.00,6,,281
2014-2-2,14,8,1,1,-1,-8,92,69,56,30.24,30.17,30.05,10,10,10,10,7,,0.00,0,,259
2014-2-3,17,6,-4,5,-2,-9,78,64,53,30.30,30.26,30.24,10,10,8,13,8,17,0.00,0,,237
2014-2-4,17,10,3,9,4,-2,85,71,53,30.41,30.34,30.27,10,10,10,15,6,,0.00,1,,332
2014-2-5,15,9,3,9,2,-4,79,70,62,30.35,30.30,30.23,10,10,6,24,14,30,0.00,6,,351
2014-2-6,6,2,-2,0,-7,-11,85,67,52,30.32,30.21,30.14,10,10,9,22,9,33,0.00,2,,252
2014-2-7,12,4,-4,-2,-7,-11,78,60,44,30.17,30.12,30.07,10,10,10,23,15,30,0.00,0,,241
2014-2-8,15,8,0,3,-1,-8,85,67,52,30.20,30.15,30.09,10,10,10,14,9,,0.00,2,,239
2014-2-9,19,12,6,7,2,-2,85,66,46,30.22,30.09,30.05,10,10,10,15,7,,0.00,7,,309
2014-2-10,6,0,-5,-4,-9,-13,78,62,48,30.40,30.31,30.22,10,10,10,14,8,,0.00,0,,292
2014-2-11,10,0,-9,-2,-8,-18,92,63,48,30.45,30.38,30.24,10,10,10,14,6,17,0.00,0,,242
2014-2-12,14,10,6,9,2,-8,85,72,52,30.25,30.10,29.97,10,8,2,17,11,21,0.00,4,,217
2014-2-13,26,16,6,21,16,1,93,84,64,29.96,29.66,29.45,10,5,0,22,8,31,0.00,7,,194
2014-2-14,21,12,1,18,6,-6,93,72,54,29.93,29.70,29.46,10,9,1,20,11,28,0.00,4,,325
2014-2-15,15,5,-5,12,1,-9,86,75,57,30.04,29.98,29.92,10,9,1,8,4,,0.00,4,,311
2014-2-16,17,12,6,12,6,0,92,77,58,30.30,30.15,29.93,10,8,1,20,11,23,0.00,4,,17
2014-2-17,23,18,14,19,17,9,93,85,74,30.26,29.96,29.73,10,6,1,23,11,34,0.00,8,,139
2014-2-18,32,20,8,28,19,5,100,91,79,29.82,29.69,29.57,10,5,0,24,7,31,0.00,4,,210
2014-2-19,39,32,24,25,22,19,93,67,49,29.90,29.77,29.60,10,9,4,16,9,22,0.00,1,,239
2014-2-20,37,34,30,37,29,19,100,83,64,29.90,29.58,28.99,10,8,2,25,10,36,0.27,6,Thunderstorm,126
2014-2-21,35,25,15,32,15,7,93,70,63,29.56,29.24,28.97,10,10,3,33,25,46,0.00,8,,234
2014-2-22,23,16,10,9,5,3,73,62,50,29.93,29.76,29.56,10,10,10,24,19,33,0.00,2,,258
2014-2-23,19,11,3,3,1,-4,78,61,49,30.03,29.99,29.93,10,10,10,23,15,30,0.00,2,,258
2014-2-24,15,10,5,1,-1,-4,72,61,49,30.16,30.10,30.03,10,10,7,15,11,21,0.00,1,,270
2014-2-25,12,6,0,0,-5,-13,72,57,44,30.15,30.08,30.01,10,10,10,18,9,25,0.00,2,,278
2014-2-26,10,2,-5,3,-9,-17,79,59,41,30.09,29.78,29.48,10,10,2,22,12,31,0.00,4,,250
2014-2-27,5,0,-5,0,-15,-18,85,48,36,30.15,29.95,29.53,10,10,1,24,13,32,0.00,1,,293
2014-2-28,17,3,-11,16,-3,-24,93,66,43,30.15,30.06,29.95,10,7,1,18,6,26,0.00,5,,215